TimeMDT,TemperatureF,Dew PointF,Humidity,Sea Level PressureIn,VisibilityMPH,Wind Direction,Wind SpeedMPH,Gust SpeedMPH,PrecipitationIn,Events,Conditions,WindDirDegrees,DateUTC
12:53 AM,36.0,24.1,62,30.12,10.0,West,6.9,-,N/A,,Clear,280,2013-03-31 06:53:00
1:53 AM,37.0,21.9,54,30.08,10.0,West,8.1,-,N/A,,Clear,260,2013-03-31 07:53:00
2:53 AM,32.0,23.0,69,30.07,10.0,South,3.5,-,N/A,,Clear,170,2013-03-31 08:53:00
3:53 AM,33.1,24.1,70,30.02,10.0,Calm,Calm,-,N/A,,Clear,0,2013-03-31 09:53:00
4:53 AM,34.0,18.0,52,29.99,10.0,SW,8.1,-,N/A,,Clear,230,2013-03-31 10:53:00
5:53 AM,30.0,21.0,69,30.01,10.0,South,3.5,-,N/A,,Clear,190,2013-03-31 11:53:00
6:53 AM,30.9,21.9,69,30.01,10.0,Calm,Calm,-,N/A,,Clear,0,2013-03-31 12:53:00
7:53 AM,33.1,23.0,66,30.03,10.0,Calm,Calm,-,N/A,,Clear,0,2013-03-31 13:53:00
8:53 AM,42.1,26.1,53,30.00,10.0,Calm,Calm,-,N/A,,Clear,0,2013-03-31 14:53:00
9:53 AM,53.1,23.0,31,29.97,10.0,ESE,9.2,-,N/A,,Clear,110,2013-03-31 15:53:00
10:53 AM,55.0,15.1,21,29.97,10.0,Calm,Calm,-,N/A,,Clear,0,2013-03-31 16:53:00
11:53 AM,59.0,18.0,20,29.97,10.0,NNE,9.2,-,N/A,,Clear,20,2013-03-31 17:53:00
12:53 PM,60.1,18.0,20,29.96,10.0,Variable,4.6,-,N/A,,Clear,0,2013-03-31 18:53:00
1:53 PM,61.0,18.0,19,29.94,10.0,Variable,5.8,-,N/A,,Clear,0,2013-03-31 19:53:00
2:53 PM,61.0,19.0,20,29.94,10.0,ENE,4.6,-,N/A,,Clear,70,2013-03-31 20:53:00
3:53 PM,62.1,18.0,18,29.92,10.0,Variable,5.8,-,N/A,,Clear,0,2013-03-31 21:53:00
4:53 PM,62.1,19.0,19,29.92,10.0,NE,8.1,-,N/A,,Clear,50,2013-03-31 22:53:00
5:53 PM,59.0,19.0,21,29.94,10.0,NE,9.2,20.7,N/A,,Clear,50,2013-03-31 23:53:00
6:53 PM,57.0,19.0,23,29.96,10.0,NE,9.2,-,N/A,,Clear,50,2013-04-01 00:53:00
7:53 PM,50.0,21.9,33,29.99,10.0,NE,8.1,-,N/A,,Clear,40,2013-04-01 01:53:00
8:53 PM,48.9,21.9,35,29.99,10.0,Calm,Calm,-,N/A,,Clear,0,2013-04-01 02:53:00
9:53 PM,45.0,23.0,42,29.99,10.0,WSW,10.4,-,N/A,,Clear,240,2013-04-01 03:53:00
10:53 PM,44.1,23.0,43,29.99,10.0,Variable,6.9,-,N/A,,Clear,0,2013-04-01 04:53:00
11:53 PM,41.0,23.0,49,29.99,10.0,Calm,Calm,-,N/A,,Clear,0,2013-04-01 05:53:00